FAB8912 SBPK-SBSM

Flight info

Callsign FAB8912
Flight time N/A
Altitude FL030
Route DCT
Aircraft H60/M-S/N

Departure

Time N/A
Airport João Simões Lopes Neto International Airport (SBPK)

Arrival

Time 2026-05-03 20:27
Airport Santa Maria Airport (SBSM)
Time Latitude Longitude Altitude Speed Heading
2026-05-03 20:15 -30.12004 -53.40244 2649 ft 157 kts 338°
2026-05-03 20:15 -30.11019 -53.40804 2651 ft 162 kts 324°
2026-05-03 20:15 -30.10067 -53.41512 2601 ft 164 kts 322°
2026-05-03 20:15 -30.09131 -53.42243 2590 ft 161 kts 321°
2026-05-03 20:16 -30.08219 -53.42978 2654 ft 160 kts 320°
2026-05-03 20:16 -30.07314 -53.43726 2701 ft 161 kts 319°
2026-05-03 20:16 -30.06409 -53.44493 2727 ft 163 kts 319°
2026-05-03 20:16 -30.05501 -53.45274 2720 ft 164 kts 319°
2026-05-03 20:17 -30.04594 -53.46071 2704 ft 165 kts 318°
2026-05-03 20:17 -30.03746 -53.46830 2683 ft 166 kts 317°
2026-05-03 20:17 -30.02833 -53.47621 2647 ft 163 kts 321°
2026-05-03 20:17 -30.01870 -53.48295 2630 ft 162 kts 324°
2026-05-03 20:18 -30.00882 -53.48924 2640 ft 162 kts 327°
2026-05-03 20:18 -29.99892 -53.49514 2656 ft 160 kts 327°
2026-05-03 20:18 -29.98914 -53.50121 2678 ft 161 kts 325°
2026-05-03 20:18 -29.97966 -53.50798 2686 ft 160 kts 323°
2026-05-03 20:19 -29.97003 -53.51447 2681 ft 161 kts 326°
2026-05-03 20:19 -29.96012 -53.52038 2677 ft 160 kts 329°
2026-05-03 20:19 -29.95018 -53.52623 2687 ft 160 kts 328°
2026-05-03 20:19 -29.94037 -53.53231 2693 ft 161 kts 326°
2026-05-03 20:20 -29.93060 -53.53871 2697 ft 162 kts 325°
2026-05-03 20:20 -29.92080 -53.54498 2694 ft 161 kts 327°
2026-05-03 20:20 -29.91090 -53.55095 2693 ft 161 kts 328°
2026-05-03 20:20 -29.90086 -53.55657 2699 ft 160 kts 329°
2026-05-03 20:21 -29.89079 -53.56196 2708 ft 160 kts 330°
2026-05-03 20:21 -29.88070 -53.56715 2711 ft 159 kts 331°
2026-05-03 20:21 -29.87050 -53.57186 2714 ft 158 kts 332°
2026-05-03 20:21 -29.86049 -53.57719 2711 ft 160 kts 328°
2026-05-03 20:22 -29.85053 -53.58295 2710 ft 161 kts 327°
2026-05-03 20:22 -29.84129 -53.59024 2670 ft 166 kts 313°
2026-05-03 20:22 -29.83307 -53.59976 2561 ft 169 kts 312°
2026-05-03 20:22 -29.82500 -53.60941 2531 ft 166 kts 310°
2026-05-03 20:23 -29.81673 -53.61836 2588 ft 162 kts 317°
2026-05-03 20:23 -29.80771 -53.62583 2665 ft 158 kts 322°
2026-05-03 20:23 -29.79849 -53.63257 2752 ft 157 kts 325°
2026-05-03 20:23 -29.78897 -53.63873 2813 ft 158 kts 328°
2026-05-03 20:24 -29.77914 -53.64439 2845 ft 158 kts 331°
2026-05-03 20:24 -29.76917 -53.64988 2854 ft 160 kts 331°
2026-05-03 20:24 -29.75936 -53.65605 2850 ft 162 kts 327°
2026-05-03 20:24 -29.75010 -53.66215 2085 ft 153 kts 332°
2026-05-03 20:25 -29.73989 -53.66570 1647 ft 151 kts 346°
2026-05-03 20:25 -29.73034 -53.66697 1599 ft 122 kts 347°
2026-05-03 20:25 -29.72276 -53.66734 1361 ft 104 kts 346°
2026-05-03 20:25 -29.71635 -53.66738 1017 ft 78 kts 329°
2026-05-03 20:26 -29.71266 -53.67030 738 ft 63 kts 279°
2026-05-03 20:26 -29.71216 -53.67495 517 ft 59 kts 278°
2026-05-03 20:26 -29.71206 -53.67925 459 ft 53 kts 284°
2026-05-03 20:26 -29.71184 -53.68412 426 ft 68 kts 277°
2026-05-03 20:27 -29.71145 -53.68877 371 ft 44 kts 271°
2026-05-03 20:27 -29.71128 -53.69062 295 ft 13 kts 270°
2026-05-03 20:27 -29.71122 -53.69170 294 ft 17 kts 270°
2026-05-03 20:27 -29.71113 -53.69315 292 ft 18 kts 269°
2026-05-03 20:28 -29.71109 -53.69453 298 ft 21 kts 268°
2026-05-03 20:28 -29.71099 -53.69601 294 ft 7 kts 341°
2026-05-03 20:28 -29.71050 -53.69607 288 ft 6 kts
2026-05-03 20:28 -29.71010 -53.69604 283 ft 6 kts
2026-05-03 20:29 -29.70959 -53.69622 280 ft 8 kts
2026-05-03 20:29 -29.70912 -53.69624 281 ft 6 kts
2026-05-03 20:29 -29.70888 -53.69622 276 ft 1 kts
2026-05-03 20:29 -29.70887 -53.69622 273 ft 0 kts